Saipan, MP

5:38 PM ChST on August 29, 2016 (GMT +1000)
Saipan International

Weather History for PGSN - December, 2012

Change the Weather History Date:

Sunday, December 23, 2012

  Actual Average Record
Temperature  
Mean Temperature 81 °F -  
Max Temperature 84 °F 82 °F 87 °F (2008)
Min Temperature 78 °F 75 °F 73 °F (2010)
Cooling Degree Days 16    
Growing Degree Days 31 (Base 50)    
Moisture  
Dew Point 72 °F    
Average Humidity 73    
Maximum Humidity 83    
Minimum Humidity 65    
Precipitation  
Precipitation 0.01 in - - ()
Sea Level Pressure  
Sea Level Pressure 29.86 in    
Wind  
Wind Speed 15 mph (ENE)    
Max Wind Speed 20 mph    
Max Gust Speed 23 mph    
Visibility 10 miles    
Events Rain    
Averages and records for this station are not official NWS values.
T = Trace of Precipitation, MM = Missing Value Source: NWS Daily Summary

Daily Weather History Graph

Daily Weather History Graph

Search for Another Location

Airport or City:

Trip Planner

Search our weather history database for the weather conditions in past years. The results will help you decide how hot, cold, wet, or windy it might be!

Date:

Astronomy

Dec. 23, 2012 Rise Set
Actual Time 6:39 AM ChST 5:53 PM ChST
Civil Twilight 6:15 AM ChST 6:16 PM ChST
Nautical Twilight 5:49 AM ChST 6:43 PM ChST
Astronomical Twilight 5:22 AM ChST 7:09 PM ChST
Moon 2:00 PM ChST (12/23) 2:09 AM ChST (12/23)
Length of Visible Light 12h 00m
Length of Day
11h 14m
Waxing Gibbous, 76% of the Moon is Illuminated
Dec 23
Waxing Gibbous
Dec 28
Full
Jan 5
Last Quarter
Jan 12
New
Jan 19
First Quarter

Hourly Weather History & Observations

Time (ChST) Temp. Heat Index Dew Point Humidity Pressure Visibility Wind Dir Wind Speed Gust Speed Precip Events Conditions
12:10 AM 80.6 °F 85.4 °F 73.4 °F 79% 29.81 in 10.0 mi ENE 13.8 mph - N/A   Scattered Clouds
12:54 AM 81.0 °F 85.8 °F 73.0 °F 77% 29.88 in 10.0 mi ENE 17.3 mph - N/A   Mostly Cloudy
1:54 AM 81.0 °F 86.2 °F 73.9 °F 79% 29.86 in 10.0 mi ENE 13.8 mph - N/A   Scattered Clouds
2:54 AM 81.0 °F 85.8 °F 73.0 °F 77% 29.84 in 10.0 mi ENE 12.7 mph - N/A   Mostly Cloudy
3:54 AM 80.1 °F 84.2 °F 73.0 °F 79% 29.83 in 10.0 mi ENE 13.8 mph - N/A   Mostly Cloudy
4:54 AM 81.0 °F 85.8 °F 73.0 °F 77% 29.83 in 10.0 mi East 15.0 mph - N/A   Overcast
5:54 AM 79.0 °F - 73.0 °F 82% 29.85 in 10.0 mi ENE 12.7 mph - N/A   Scattered Clouds
6:04 AM 78.8 °F - 73.4 °F 83% 29.79 in 10.0 mi ENE 13.8 mph - N/A   Overcast
6:29 AM 80.6 °F 84.6 °F 71.6 °F 74% 29.80 in 10.0 mi East 16.1 mph - N/A   Overcast
6:54 AM 80.1 °F 84.2 °F 73.0 °F 79% 29.88 in 10.0 mi East 15.0 mph - N/A   Overcast
7:54 AM 81.0 °F 85.8 °F 73.0 °F 77% 29.90 in 10.0 mi East 13.8 mph 23.0 mph 0.01 in   Mostly Cloudy
8:22 AM 80.6 °F 84.6 °F 71.6 °F 74% 29.85 in 10.0 mi East 16.1 mph - N/A   Mostly Cloudy
8:54 AM 82.0 °F 87.4 °F 73.0 °F 74% 29.93 in 10.0 mi East 12.7 mph - N/A   Mostly Cloudy
9:12 AM 82.4 °F 88.2 °F 73.4 °F 74% 29.87 in 10.0 mi East 13.8 mph - N/A   Mostly Cloudy
9:54 AM 84.0 °F 90.2 °F 73.0 °F 69% 29.93 in 10.0 mi East 16.1 mph - N/A   Mostly Cloudy
10:54 AM 82.9 °F 88.8 °F 73.0 °F 72% 29.86 in 10.0 mi East 18.4 mph - N/A   Mostly Cloudy
11:20 AM 82.4 °F 88.2 °F 73.4 °F 74% 29.84 in 10.0 mi ENE 16.1 mph - N/A   Overcast
11:54 AM 82.9 °F 88.8 °F 73.0 °F 72% 29.89 in 10.0 mi East 19.6 mph - N/A   Overcast
12:01 PM 84.2 °F 90.9 °F 73.4 °F 70% 29.82 in 10.0 mi East 18.4 mph - N/A   Overcast
12:54 PM 84.0 °F 90.2 °F 73.0 °F 69% 29.87 in 10.0 mi ENE 18.4 mph - N/A   Overcast
1:31 PM 84.2 °F 89.6 °F 71.6 °F 66% 29.78 in 10.0 mi ENE 16.1 mph - N/A   Overcast
1:54 PM 84.0 °F 89.6 °F 72.0 °F 67% 29.84 in 10.0 mi ENE 18.4 mph - N/A   Overcast
2:54 PM 84.0 °F 89.0 °F 71.1 °F 65% 29.83 in 10.0 mi East 16.1 mph - N/A   Clear
3:54 PM 82.0 °F 85.9 °F 70.0 °F 67% 29.83 in 10.0 mi East 16.1 mph - N/A   Scattered Clouds
4:54 PM 81.0 °F 83.8 °F 68.0 °F 65% 29.84 in 10.0 mi East 15.0 mph 21.9 mph N/A   Overcast
5:54 PM 79.0 °F - 68.0 °F 69% 29.86 in 10.0 mi East 12.7 mph - N/A   Mostly Cloudy
6:54 PM 79.0 °F - 68.0 °F 69% 29.88 in 10.0 mi East 11.5 mph - N/A   Mostly Cloudy
7:54 PM 80.1 °F 82.9 °F 69.1 °F 69% 29.90 in 10.0 mi East 11.5 mph - N/A   Mostly Cloudy
8:54 PM 80.1 °F 83.2 °F 70.0 °F 71% 29.92 in 10.0 mi East 12.7 mph - N/A   Mostly Cloudy
9:54 PM 80.1 °F 83.2 °F 70.0 °F 71% 29.94 in 10.0 mi East 9.2 mph - N/A   Mostly Cloudy
10:54 PM 79.0 °F - 72.0 °F 79% 29.94 in 10.0 mi ENE 10.4 mph - N/A   Overcast
11:54 PM 78.1 °F - 72.0 °F 81% 29.94 in 10.0 mi NE 9.2 mph - 0.00 in Rain Light Rain